| time (UTC) | temp F | wind direction | speed MPH | gust MPH | rain 1hr in | rain 24hr in | rain mn in | humidity % | barometer mb |
| 20260507181926 | 62 | 200 | 3.0 | 8.0 | 0.00 | 0.36 | 0.29 | 58 | 1005.8 |
| 20260507181513 | 62 | 250 | 2.0 | 7.0 | 0.00 | 0.36 | 0.29 | 58 | 1005.8 |
| 20260507180425 | 61 | 162 | 2.0 | 8.0 | 0.00 | 0.36 | 0.29 | 60 | 1006.1 |
| 20260507175927 | 61 | 129 | 2.0 | 7.0 | 0.00 | 0.36 | 0.29 | 58 | 1006.0 |
| 20260507175423 | 61 | 276 | 2.0 | 7.0 | 0.00 | 0.36 | 0.29 | 59 | 1006.1 |
| 20260507174914 | 60 | 25 | 2.0 | 7.0 | 0.00 | 0.36 | 0.29 | 60 | 1006.0 |
| 20260507174408 | 61 | 243 | 2.0 | 7.0 | 0.00 | 0.36 | 0.29 | 58 | 1006.1 |
| 20260507173909 | 63 | 171 | 1.0 | 4.0 | 0.00 | 0.36 | 0.29 | 55 | 1006.0 |
| 20260507173408 | 64 | 88 | 1.0 | 4.0 | 0.00 | 0.36 | 0.29 | 53 | 1005.9 |
| 20260507172907 | 64 | 78 | 1.0 | 4.0 | 0.00 | 0.36 | 0.29 | 52 | 1006.0 |
| 20260507172407 | 64 | 91 | 2.0 | 4.0 | 0.00 | 0.36 | 0.29 | 53 | 1005.9 |
| 20260507171906 | 63 | 105 | 2.0 | 5.0 | 0.00 | 0.36 | 0.29 | 54 | 1006.1 |
| 20260507171406 | 63 | 253 | 1.0 | 5.0 | 0.00 | 0.36 | 0.29 | 58 | 1006.1 |
| 20260507170904 | 62 | 189 | 1.0 | 4.0 | 0.00 | 0.36 | 0.29 | 59 | 1006.2 |
| 20260507170402 | 62 | 255 | 1.0 | 3.0 | 0.00 | 0.36 | 0.29 | 59 | 1006.2 |
| 20260507165902 | 62 | 236 | 1.0 | 4.0 | 0.00 | 0.36 | 0.29 | 57 | 1006.4 |
| 20260507165438 | 63 | 131 | 1.0 | 4.0 | 0.00 | 0.36 | 0.29 | 60 | 1006.3 |
| 20260507164656 | 63 | 56 | 1.0 | 3.0 | 0.00 | 0.36 | 0.29 | 57 | 1006.2 |
| 20260507163905 | 63 | 140 | 2.0 | 5.0 | 0.00 | 0.36 | 0.29 | 58 | 1006.4 |
| 20260507163402 | 64 | 220 | 3.0 | 7.0 | 0.00 | 0.36 | 0.29 | 54 | 1006.4 |
| 20260507163201 | 64 | 128 | 2.0 | 7.0 | 0.00 | 0.36 | 0.29 | 57 | 1006.6 |
| 20260507162401 | 63 | 133 | 1.0 | 4.0 | 0.00 | 0.36 | 0.29 | 58 | 1006.5 |
| 20260507161901 | 62 | 290 | 1.0 | 4.0 | 0.00 | 0.36 | 0.29 | 58 | 1006.5 |
| 20260507161403 | 61 | 150 | 1.0 | 4.0 | 0.00 | 0.36 | 0.29 | 57 | 1006.8 |
| 20260507161203 | 61 | 226 | 2.0 | 5.0 | 0.00 | 0.36 | 0.29 | 56 | 1006.8 |
| 20260507160401 | 62 | 57 | 1.0 | 5.0 | 0.00 | 0.36 | 0.29 | 56 | 1006.8 |
| 20260507155859 | 62 | 227 | 1.0 | 5.0 | 0.00 | 0.36 | 0.29 | 58 | 1006.9 |
| 20260507155356 | 62 | 225 | 1.0 | 5.0 | 0.00 | 0.36 | 0.29 | 59 | 1007.0 |
| 20260507154857 | 61 | 287 | 1.0 | 4.0 | 0.00 | 0.36 | 0.29 | 61 | 1007.1 |
| 20260507154357 | 60 | 293 | 1.0 | 5.0 | 0.00 | 0.36 | 0.29 | 63 | 1007.2 |
| 20260507153854 | 60 | 246 | 2.0 | 5.0 | 0.00 | 0.36 | 0.29 | 61 | 1007.1 |
| 20260507153355 | 60 | 40 | 2.0 | 4.0 | 0.00 | 0.36 | 0.29 | 62 | 1007.0 |
| 20260507152855 | 60 | 248 | 1.0 | 4.0 | 0.00 | 0.36 | 0.29 | 63 | 1007.1 |
| 20260507152358 | 60 | 37 | 2.0 | 9.0 | 0.00 | 0.36 | 0.29 | 63 | 1007.2 |
| 20260507151855 | 60 | 53 | 2.0 | 9.0 | 0.00 | 0.36 | 0.29 | 60 | 1007.2 |
| 20260507151352 | 60 | 117 | 2.0 | 6.0 | 0.00 | 0.36 | 0.29 | 64 | 1007.2 |
| 20260507150853 | 60 | 285 | 2.0 | 5.0 | 0.00 | 0.36 | 0.29 | 64 | 1007.5 |
| 20260507150354 | 59 | 101 | 2.0 | 5.0 | 0.00 | 0.36 | 0.29 | 63 | 1007.5 |
| 20260507145852 | 59 | 65 | 2.0 | 5.0 | 0.00 | 0.36 | 0.29 | 64 | 1007.4 |
| 20260507145353 | 59 | 175 | 2.0 | 4.0 | 0.00 | 0.36 | 0.29 | 65 | 1007.5 |
| 20260507144852 | 58 | 236 | 1.0 | 4.0 | 0.00 | 0.36 | 0.29 | 68 | 1007.5 |
| 20260507144349 | 58 | 41 | 2.0 | 7.0 | 0.00 | 0.36 | 0.29 | 69 | 1007.5 |
| 20260507143844 | 58 | 219 | 2.0 | 7.0 | 0.00 | 0.36 | 0.29 | 66 | 1007.6 |
| 20260507143336 | 57 | 62 | 2.0 | 6.0 | 0.00 | 0.36 | 0.29 | 70 | 1007.5 |
| 20260507142834 | 58 | 56 | 2.0 | 5.0 | 0.00 | 0.36 | 0.29 | 68 | 1007.7 |
| 20260507142335 | 58 | 274 | 1.0 | 5.0 | 0.00 | 0.36 | 0.29 | 67 | 1007.6 |
| 20260507142128 | 58 | 253 | 1.0 | 4.0 | 0.00 | 0.36 | 0.29 | 74 | 1007.6 |
| 20260507141334 | 58 | 262 | 1.0 | 4.0 | 0.00 | 0.36 | 0.29 | 72 | 1007.8 |
| 20260507141148 | 57 | 129 | 1.0 | 4.0 | 0.00 | 0.36 | 0.29 | 72 | 1007.6 |
| 20260507140333 | 56 | 84 | 2.0 | 7.0 | 0.00 | 0.36 | 0.29 | 73 | 1007.7 |
| 20260507140148 | 56 | 266 | 1.0 | 7.0 | 0.00 | 0.36 | 0.29 | 77 | 1007.6 |
| 20260507135332 | 56 | 44 | 1.0 | 6.0 | 0.00 | 0.36 | 0.29 | 77 | 1007.6 |
| 20260507134832 | 55 | 86 | 1.0 | 5.0 | 0.00 | 0.36 | 0.29 | 81 | 1007.7 |
| 20260507134331 | 55 | 70 | 1.0 | 5.0 | 0.00 | 0.36 | 0.29 | 80 | 1007.8 |
| 20260507134124 | 55 | 219 | 1.0 | 5.0 | 0.00 | 0.36 | 0.29 | 85 | 1007.6 |
| 20260507133330 | 54 | 54 | 1.0 | 5.0 | 0.00 | 0.36 | 0.29 | 88 | 1007.5 |
| 20260507132830 | 54 | 231 | 1.0 | 4.0 | 0.00 | 0.36 | 0.29 | 92 | 1007.6 |
| 20260507132329 | 53 | 223 | 1.0 | 5.0 | 0.00 | 0.36 | 0.29 | 92 | 1007.8 |
| 20260507131831 | 53 | 53 | 1.0 | 5.0 | 0.00 | 0.36 | 0.29 | 93 | 1007.8 |
| 20260507131329 | 52 | 262 | 1.0 | 2.0 | 0.00 | 0.36 | 0.29 | 95 | 1007.8 |
| 20260507130832 | 52 | 223 | 0.0 | 2.0 | 0.00 | 0.36 | 0.29 | 96 | 1007.7 |
| 20260507130327 | 51 | 229 | 0.0 | 2.0 | 0.00 | 0.36 | 0.29 | 96 | 1007.9 |
| 20260507130137 | 51 | 229 | 0.0 | 2.0 | 0.00 | 0.36 | 0.29 | 95 | 1007.8 |
| 20260507125316 | 51 | 228 | 0.0 | 1.0 | 0.00 | 0.36 | 0.29 | 96 | 1007.9 |
| 20260507125107 | 51 | 204 | 0.0 | 1.0 | 0.00 | 0.36 | 0.29 | 96 | 1007.9 |
| 20260507124309 | 50 | 221 | 0.0 | 1.0 | 0.00 | 0.36 | 0.29 | 96 | 1008.0 |
| 20260507124108 | 50 | 270 | 0.0 | 1.0 | 0.00 | 0.36 | 0.29 | 96 | 1008.0 |
| 20260507123306 | 50 | 261 | 0.0 | 0.0 | 0.00 | 0.36 | 0.29 | 96 | 1008.0 |
| 20260507123111 | 50 | 261 | 0.0 | 0.0 | 0.01 | 0.36 | 0.29 | 96 | 1008.0 |
| 20260507122307 | 49 | 250 | 0.0 | 0.0 | 0.02 | 0.36 | 0.29 | 97 | 1007.9 |
| 20260507121801 | 49 | 229 | 0.0 | 0.0 | 0.03 | 0.36 | 0.29 | 96 | 1007.7 |
| 20260507121556 | 49 | 240 | 0.0 | 0.0 | 0.04 | 0.36 | 0.29 | 96 | 1007.8 |
| 20260507120803 | 49 | 237 | 0.0 | 0.0 | 0.05 | 0.36 | 0.29 | 96 | 1007.7 |
| 20260507120707 | 48 | 237 | 0.0 | 0.0 | 0.05 | 0.36 | 0.29 | 96 | 1007.8 |
| 20260507115553 | 48 | 209 | 0.0 | 0.0 | 0.05 | 0.36 | 0.29 | 96 | 1007.7 |
| 20260507114802 | 48 | 209 | 0.0 | 0.0 | 0.05 | 0.36 | 0.29 | 96 | 1007.7 |
| 20260507114556 | 48 | 209 | 0.0 | 0.0 | 0.05 | 0.36 | 0.29 | 96 | 1007.9 |
| 20260507113803 | 48 | 203 | 0.0 | 0.0 | 0.05 | 0.36 | 0.29 | 96 | 1007.6 |
| 20260507113549 | 48 | 203 | 0.0 | 0.0 | 0.05 | 0.36 | 0.29 | 96 | 1007.4 |
| 20260507112802 | 48 | 205 | 0.0 | 0.0 | 0.04 | 0.35 | 0.28 | 96 | 1007.6 |
| 20260507112301 | 48 | 205 | 0.0 | 0.0 | 0.03 | 0.34 | 0.27 | 96 | 1007.8 |
| 20260507111759 | 48 | 203 | 0.0 | 0.0 | 0.02 | 0.33 | 0.26 | 96 | 1007.8 |
| 20260507111258 | 48 | 254 | 0.0 | 0.0 | 0.02 | 0.32 | 0.25 | 95 | 1008.1 |
| 20260507110759 | 48 | 161 | 0.0 | 0.0 | 0.01 | 0.31 | 0.24 | 96 | 1007.6 |
| 20260507110255 | 48 | 252 | 0.0 | 0.0 | 0.02 | 0.31 | 0.24 | 96 | 1007.5 |
| 20260507110054 | 48 | 254 | 0.0 | 1.0 | 0.02 | 0.31 | 0.24 | 96 | 1007.4 |
| 20260507105251 | 48 | 254 | 0.0 | 1.0 | 0.03 | 0.31 | 0.24 | 95 | 1007.2 |
| 20260507104752 | 48 | 112 | 0.0 | 1.0 | 0.03 | 0.31 | 0.24 | 96 | 1007.5 |
| 20260507104545 | 48 | 112 | 0.0 | 1.0 | 0.03 | 0.31 | 0.24 | 96 | 1007.5 |
| 20260507103751 | 48 | 49 | 0.0 | 1.0 | 0.03 | 0.31 | 0.24 | 96 | 1007.6 |
| 20260507103251 | 49 | 49 | 0.0 | 4.0 | 0.03 | 0.31 | 0.24 | 95 | 1007.6 |
| 20260507102752 | 49 | 347 | 0.0 | 4.0 | 0.04 | 0.31 | 0.24 | 95 | 1007.9 |
| 20260507102252 | 49 | 167 | 0.0 | 4.0 | 0.04 | 0.31 | 0.24 | 96 | 1007.9 |
| 20260507101751 | 50 | 318 | 1.0 | 5.0 | 0.04 | 0.31 | 0.24 | 95 | 1007.6 |
| 20260507101251 | 50 | 243 | 0.0 | 5.0 | 0.03 | 0.30 | 0.23 | 96 | 1007.5 |
| 20260507100751 | 51 | 90 | 0.0 | 2.0 | 0.03 | 0.30 | 0.22 | 96 | 1007.4 |
| 20260507100538 | 51 | 120 | 0.0 | 1.0 | 0.03 | 0.29 | 0.22 | 96 | 1007.4 |
| 20260507100049 | 51 | 121 | 0.0 | 1.0 | 0.03 | 0.29 | 0.22 | 96 | 1007.5 |
| 20260507095243 | 51 | 121 | 0.0 | 1.0 | 0.02 | 0.28 | 0.21 | 96 | 1007.2 |
| 20260507094743 | 51 | 121 | 0.0 | 1.0 | 0.03 | 0.28 | 0.21 | 96 | 1007.1 |
| 20260507094245 | 51 | 257 | 0.0 | 1.0 | 0.04 | 0.28 | 0.21 | 96 | 1007.4 |
| 20260507093743 | 51 | 220 | 0.0 | 1.0 | 0.04 | 0.28 | 0.21 | 96 | 1007.2 |
| 20260507093245 | 51 | 220 | 0.0 | 1.0 | 0.04 | 0.28 | 0.21 | 96 | 1007.3 |
| 20260507092801 | 51 | 259 | 0.0 | 1.0 | 0.05 | 0.27 | 0.20 | 96 | 1007.2 |
| 20260507092243 | 52 | 259 | 0.0 | 3.0 | 0.08 | 0.27 | 0.20 | 96 | 1007.4 |
| 20260507091742 | 52 | 259 | 1.0 | 6.0 | 0.11 | 0.27 | 0.20 | 95 | 1006.9 |
| 20260507091554 | 53 | 274 | 1.0 | 6.0 | 0.13 | 0.27 | 0.20 | 95 | 1006.8 |
| 20260507091034 | 53 | 265 | 0.0 | 2.0 | 0.14 | 0.27 | 0.20 | 96 | 1006.6 |
| 20260507090245 | 53 | 29 | 0.0 | 1.0 | 0.14 | 0.26 | 0.19 | 96 | 1006.8 |
| 20260507085743 | 53 | 54 | 0.0 | 1.0 | 0.15 | 0.26 | 0.19 | 96 | 1006.7 |
| 20260507085241 | 53 | 54 | 0.0 | 1.0 | 0.15 | 0.26 | 0.19 | 96 | 1006.6 |
| 20260507084738 | 53 | 259 | 0.0 | 1.0 | 0.18 | 0.25 | 0.18 | 96 | 1006.8 |
| 20260507084236 | 53 | 259 | 0.0 | 1.0 | 0.17 | 0.24 | 0.17 | 96 | 1006.7 |
| 20260507083737 | 53 | 98 | 0.0 | 1.0 | 0.17 | 0.24 | 0.17 | 95 | 1006.5 |
| 20260507083235 | 54 | 56 | 0.0 | 1.0 | 0.16 | 0.23 | 0.16 | 95 | 1006.7 |
| 20260507082736 | 54 | 262 | 0.0 | 1.0 | 0.15 | 0.22 | 0.14 | 95 | 1006.8 |
| 20260507082236 | 54 | 262 | 0.0 | 1.0 | 0.12 | 0.19 | 0.11 | 95 | 1006.9 |
| 20260507082028 | 54 | 126 | 0.0 | 1.0 | 0.09 | 0.16 | 0.08 | 95 | 1006.7 |
| 20260507081235 | 54 | 160 | 0.0 | 1.0 | 0.07 | 0.14 | 0.07 | 95 | 1006.7 |
| 20260507080739 | 55 | 251 | 0.0 | 2.0 | 0.06 | 0.13 | 0.06 | 95 | 1006.7 |
| 20260507080236 | 55 | 127 | 0.0 | 2.0 | 0.05 | 0.12 | 0.05 | 95 | 1006.4 |
| 20260507075736 | 55 | 127 | 0.0 | 2.0 | 0.04 | 0.11 | 0.04 | 95 | 1006.6 |
| 20260507075235 | 55 | 277 | 0.0 | 2.0 | 0.03 | 0.10 | 0.03 | 95 | 1006.7 |
| 20260507074736 | 56 | 86 | 0.0 | 2.0 | 0.00 | 0.07 | 0.00 | 96 | 1006.4 |
| 20260507074235 | 56 | 85 | 0.0 | 3.0 | 0.00 | 0.07 | 0.00 | 96 | 1005.9 |
| 20260507073737 | 56 | 135 | 0.0 | 3.0 | 0.00 | 0.07 | 0.00 | 96 | 1005.8 |
| 20260507073236 | 56 | 124 | 0.0 | 1.0 | 0.00 | 0.07 | 0.00 | 95 | 1005.7 |
| 20260507072737 | 56 | 124 | 0.0 | 1.0 | 0.00 | 0.07 | 0.00 | 96 | 1005.6 |
| 20260507072235 | 57 | 124 | 0.0 | 1.0 | 0.00 | 0.07 | 0.00 | 96 | 1005.7 |
| 20260507071731 | 57 | 124 | 0.0 | 1.0 | 0.00 | 0.07 | 0.00 | 96 | 1005.6 |
| 20260507071233 | 57 | 124 | 0.0 | 0.0 | 0.00 | 0.07 | 0.00 | 96 | 1005.7 |
| 20260507070731 | 57 | 124 | 0.0 | 0.0 | 0.00 | 0.07 | 0.00 | 97 | 1005.9 |
| 20260507070231 | 57 | 124 | 0.0 | 0.0 | 0.00 | 0.07 | 0.00 | 97 | 1005.7 |
| 20260507065730 | 57 | 132 | 0.0 | 0.0 | 0.00 | 0.07 | 0.00 | 96 | 1005.5 |
| 20260507065230 | 57 | 132 | 0.0 | 0.0 | 0.00 | 0.07 | 0.00 | 97 | 1005.5 |
| 20260507064729 | 58 | 132 | 0.0 | 0.0 | 0.00 | 0.07 | 0.00 | 97 | 1005.6 |
| 20260507064229 | 57 | 133 | 0.0 | 0.0 | 0.00 | 0.07 | 0.00 | 97 | 1005.8 |
| 20260507063729 | 57 | 133 | 0.0 | 0.0 | 0.00 | 0.07 | 0.00 | 97 | 1005.8 |
| 20260507063229 | 57 | 131 | 0.0 | 0.0 | 0.00 | 0.07 | 0.00 | 97 | 1005.8 |
| 20260507062727 | 57 | 131 | 0.0 | 0.0 | 0.00 | 0.07 | 0.00 | 97 | 1005.7 |
| 20260507062227 | 57 | 232 | 0.0 | 1.0 | 0.00 | 0.07 | 0.00 | 97 | 1005.9 |
| 20260507062019 | 57 | 232 | 0.0 | 1.0 | 0.00 | 0.07 | 0.00 | 97 | 1005.8 |
| 20260507061225 | 57 | 232 | 0.0 | 1.0 | 0.00 | 0.07 | 0.00 | 97 | 1005.8 |
| 20260507061021 | 57 | 232 | 0.0 | 2.0 | 0.00 | 0.07 | 0.00 | 97 | 1006.0 |
| 20260507060223 | 57 | 234 | 1.0 | 2.0 | 0.00 | 0.07 | 0.00 | 97 | 1006.2 |
| 20260507055722 | 57 | 242 | 1.0 | 2.0 | 0.00 | 0.07 | 0.00 | 97 | 1006.1 |
| 20260507055220 | 57 | 238 | 0.0 | 2.0 | 0.00 | 0.07 | 0.00 | 97 | 1006.0 |
| 20260507054720 | 57 | 169 | 1.0 | 3.0 | 0.00 | 0.07 | 0.00 | 97 | 1006.0 |
| 20260507054219 | 57 | 205 | 1.0 | 4.0 | 0.00 | 0.07 | 0.00 | 96 | 1006.1 |
| 20260507053722 | 57 | 214 | 1.0 | 4.0 | 0.00 | 0.07 | 0.00 | 97 | 1006.1 |
| 20260507053217 | 57 | 236 | 1.0 | 4.0 | 0.00 | 0.07 | 0.00 | 97 | 1006.1 |
| 20260507053017 | 57 | 209 | 0.0 | 3.0 | 0.00 | 0.07 | 0.00 | 96 | 1006.1 |
| 20260507052211 | 57 | 228 | 0.0 | 1.0 | 0.00 | 0.07 | 0.00 | 96 | 1006.2 |
| 20260507051706 | 57 | 238 | 0.0 | 3.0 | 0.00 | 0.07 | 0.00 | 96 | 1006.2 |
| 20260507051206 | 57 | 238 | 1.0 | 3.0 | 0.00 | 0.07 | 0.00 | 96 | 1006.4 |
| 20260507050705 | 57 | 237 | 2.0 | 6.0 | 0.00 | 0.07 | 0.00 | 96 | 1006.5 |
| 20260507050203 | 57 | 229 | 2.0 | 8.0 | 0.00 | 0.07 | 0.00 | 96 | 1006.5 |
| 20260507045703 | 57 | 247 | 2.0 | 8.0 | 0.00 | 0.07 | 0.00 | 96 | 1006.5 |
| 20260507045203 | 57 | 228 | 2.0 | 4.0 | 0.00 | 0.07 | 0.00 | 96 | 1006.3 |
| 20260507044703 | 57 | 243 | 2.0 | 4.0 | 0.00 | 0.07 | 0.00 | 96 | 1006.2 |
| 20260507044201 | 57 | 231 | 2.0 | 4.0 | 0.00 | 0.07 | 0.00 | 96 | 1006.2 |
| 20260507043702 | 57 | 229 | 2.0 | 4.0 | 0.00 | 0.07 | 0.00 | 96 | 1006.2 |
| 20260507043201 | 57 | 236 | 2.0 | 4.0 | 0.00 | 0.07 | 0.00 | 96 | 1006.2 |
| 20260507042703 | 57 | 138 | 2.0 | 3.0 | 0.00 | 0.07 | 0.00 | 96 | 1006.2 |
| 20260507042159 | 57 | 219 | 2.0 | 4.0 | 0.00 | 0.07 | 0.00 | 96 | 1006.3 |
| 20260507041659 | 57 | 229 | 2.0 | 4.0 | 0.00 | 0.07 | 0.00 | 96 | 1006.2 |
| 20260507041448 | 57 | 219 | 3.0 | 6.0 | 0.00 | 0.07 | 0.00 | 96 | 1006.3 |
| 20260507040658 | 57 | 217 | 3.0 | 6.0 | 0.00 | 0.07 | 0.00 | 96 | 1006.3 |
| 20260507040231 | 57 | 204 | 3.0 | 8.0 | 0.00 | 0.07 | 0.00 | 96 | 1006.3 |
| 20260507035153 | 57 | 210 | 3.0 | 8.0 | 0.00 | 0.07 | 0.07 | 96 | 1006.7 |
| 20260507034946 | 57 | 230 | 3.0 | 7.0 | 0.00 | 0.07 | 0.07 | 96 | 1006.7 |
| 20260507034143 | 57 | 255 | 3.0 | 6.0 | 0.00 | 0.07 | 0.07 | 96 | 1006.6 |
| 20260507033643 | 57 | 224 | 3.0 | 8.0 | 0.00 | 0.07 | 0.07 | 96 | 1006.4 |
| 20260507033435 | 57 | 229 | 3.0 | 10.0 | 0.00 | 0.07 | 0.07 | 96 | 1006.4 |
| 20260507032644 | 57 | 214 | 3.0 | 10.0 | 0.00 | 0.07 | 0.07 | 96 | 1006.3 |
| 20260507032143 | 57 | 287 | 3.0 | 8.0 | 0.00 | 0.07 | 0.07 | 96 | 1006.3 |
| 20260507031642 | 57 | 219 | 3.0 | 10.0 | 0.00 | 0.07 | 0.07 | 96 | 1006.4 |
| 20260507031139 | 57 | 212 | 3.0 | 11.0 | 0.00 | 0.07 | 0.07 | 96 | 1006.1 |
| 20260507030640 | 57 | 233 | 3.0 | 11.0 | 0.00 | 0.07 | 0.07 | 96 | 1006.2 |
| 20260507030137 | 56 | 229 | 3.0 | 9.0 | 0.00 | 0.07 | 0.07 | 96 | 1006.1 |
| 20260507025637 | 56 | 219 | 4.0 | 9.0 | 0.00 | 0.07 | 0.07 | 96 | 1006.1 |
| 20260507025432 | 57 | 240 | 4.0 | 9.0 | 0.00 | 0.07 | 0.07 | 96 | 1006.0 |
| 20260507024638 | 56 | 221 | 3.0 | 8.0 | 0.00 | 0.07 | 0.07 | 96 | 1005.9 |
| 20260507024138 | 57 | 231 | 4.0 | 8.0 | 0.00 | 0.07 | 0.07 | 96 | 1006.0 |
| 20260507023635 | 57 | 245 | 4.0 | 13.0 | 0.00 | 0.07 | 0.07 | 96 | 1005.9 |
| 20260507023423 | 57 | 195 | 4.0 | 13.0 | 0.00 | 0.07 | 0.07 | 96 | 1006.0 |
| 20260507022926 | 57 | 221 | 3.0 | 9.0 | 0.00 | 0.07 | 0.07 | 96 | 1006.0 |
| 20260507022132 | 57 | 154 | 3.0 | 13.0 | 0.00 | 0.07 | 0.07 | 96 | 1006.1 |
| 20260507021926 | 57 | 146 | 4.0 | 13.0 | 0.00 | 0.07 | 0.07 | 96 | 1006.0 |
| 20260507021135 | 57 | 243 | 3.0 | 9.0 | 0.00 | 0.07 | 0.07 | 96 | 1006.3 |
| 20260507020631 | 57 | 240 | 3.0 | 9.0 | 0.00 | 0.07 | 0.07 | 96 | 1006.1 |
| 20260507020134 | 57 | 214 | 4.0 | 9.0 | 0.00 | 0.07 | 0.07 | 96 | 1006.4 |
| 20260507015630 | 57 | 245 | 3.0 | 9.0 | 0.00 | 0.07 | 0.07 | 96 | 1006.6 |
| 20260507015130 | 57 | 195 | 3.0 | 8.0 | 0.00 | 0.07 | 0.07 | 96 | 1006.6 |
| 20260507014629 | 57 | 193 | 3.0 | 8.0 | 0.00 | 0.07 | 0.07 | 96 | 1006.6 |
| 20260507014128 | 57 | 231 | 4.0 | 9.0 | 0.00 | 0.07 | 0.07 | 96 | 1006.7 |
| 20260507013919 | 57 | 214 | 3.0 | 9.0 | 0.00 | 0.07 | 0.07 | 96 | 1006.6 |
| 20260507013130 | 57 | 221 | 3.0 | 9.0 | 0.00 | 0.07 | 0.07 | 96 | 1006.6 |
| 20260507012925 | 57 | 144 | 4.0 | 11.0 | 0.00 | 0.07 | 0.07 | 96 | 1006.7 |
| 20260507012130 | 57 | 190 | 4.0 | 11.0 | 0.00 | 0.07 | 0.07 | 96 | 1006.8 |
| 20260507011927 | 57 | 229 | 3.0 | 10.0 | 0.01 | 0.07 | 0.07 | 96 | 1006.7 |
| 20260507011132 | 57 | 205 | 3.0 | 10.0 | 0.01 | 0.07 | 0.07 | 96 | 1006.8 |
| 20260507010629 | 57 | 250 | 4.0 | 11.0 | 0.02 | 0.07 | 0.07 | 96 | 1006.6 |
| 20260507010128 | 57 | 186 | 4.0 | 11.0 | 0.03 | 0.07 | 0.07 | 96 | 1006.7 |
| 20260507005631 | 57 | 248 | 4.0 | 12.0 | 0.03 | 0.07 | 0.07 | 96 | 1006.7 |
| 20260507005126 | 57 | 249 | 4.0 | 12.0 | 0.03 | 0.07 | 0.07 | 96 | 1006.6 |
| 20260507004912 | 57 | 216 | 4.0 | 12.0 | 0.03 | 0.07 | 0.07 | 96 | 1006.8 |
| 20260507004115 | 57 | 205 | 4.0 | 9.0 | 0.03 | 0.07 | 0.07 | 96 | 1006.8 |
| 20260507003612 | 57 | 233 | 4.0 | 12.0 | 0.03 | 0.07 | 0.07 | 96 | 1006.8 |
| 20260507003112 | 57 | 191 | 5.0 | 13.0 | 0.03 | 0.07 | 0.07 | 96 | 1006.9 |
| 20260507002609 | 57 | 198 | 5.0 | 13.0 | 0.03 | 0.07 | 0.07 | 96 | 1006.7 |
| 20260507002111 | 57 | 171 | 4.0 | 12.0 | 0.03 | 0.07 | 0.07 | 95 | 1006.7 |
| 20260507001609 | 58 | 136 | 3.0 | 12.0 | 0.02 | 0.06 | 0.06 | 95 | 1006.6 |
| 20260507001110 | 58 | 249 | 3.0 | 8.0 | 0.01 | 0.05 | 0.05 | 95 | 1006.6 |
| 20260507000903 | 58 | 193 | 4.0 | 12.0 | 0.01 | 0.05 | 0.05 | 95 | 1006.6 |
| 20260507000108 | 58 | 229 | 5.0 | 12.0 | 0.00 | 0.04 | 0.04 | 95 | 1006.6 |
| 20260506235605 | 58 | 125 | 4.0 | 12.0 | 0.01 | 0.04 | 0.04 | 95 | 1006.7 |
| 20260506235106 | 58 | 198 | 4.0 | 11.0 | 0.01 | 0.04 | 0.04 | 95 | 1006.6 |
| 20260506234605 | 58 | 212 | 3.0 | 8.0 | 0.01 | 0.04 | 0.04 | 95 | 1006.7 |
| 20260506234104 | 58 | 181 | 4.0 | 15.0 | 0.01 | 0.04 | 0.04 | 95 | 1006.4 |
| 20260506233603 | 58 | 162 | 5.0 | 15.0 | 0.02 | 0.04 | 0.04 | 95 | 1006.8 |
| 20260506233409 | 58 | 233 | 5.0 | 15.0 | 0.02 | 0.04 | 0.04 | 95 | 1006.8 |
| 20260506232606 | 58 | 208 | 5.0 | 12.0 | 0.02 | 0.04 | 0.04 | 95 | 1006.9 |
| 20260506232358 | 58 | 205 | 4.0 | 11.0 | 0.02 | 0.04 | 0.04 | 95 | 1006.9 |
| 20260506231603 | 58 | 92 | 4.0 | 9.0 | 0.03 | 0.04 | 0.04 | 95 | 1006.8 |
| 20260506231105 | 58 | 252 | 3.0 | 12.0 | 0.03 | 0.04 | 0.04 | 94 | 1006.8 |
| 20260506230606 | 58 | 239 | 4.0 | 12.0 | 0.03 | 0.04 | 0.04 | 94 | 1006.8 |
| 20260506230057 | 58 | 260 | 4.0 | 11.0 | 0.03 | 0.04 | 0.04 | 94 | 1006.8 |
| 20260506225845 | 58 | 204 | 3.0 | 11.0 | 0.02 | 0.03 | 0.03 | 94 | 1006.8 |
| 20260506225046 | 58 | 211 | 3.0 | 16.0 | 0.02 | 0.03 | 0.03 | 94 | 1006.9 |
| 20260506224542 | 58 | 170 | 4.0 | 16.0 | 0.02 | 0.03 | 0.03 | 94 | 1006.9 |
| 20260506224042 | 58 | 127 | 4.0 | 12.0 | 0.02 | 0.03 | 0.03 | 93 | 1007.2 |
| 20260506223542 | 58 | 229 | 3.0 | 12.0 | 0.01 | 0.02 | 0.02 | 93 | 1007.3 |
| 20260506223042 | 58 | 148 | 3.0 | 12.0 | 0.01 | 0.02 | 0.02 | 93 | 1007.3 |
| 20260506222542 | 59 | 157 | 4.0 | 9.0 | 0.01 | 0.02 | 0.02 | 92 | 1007.2 |
| 20260506222046 | 59 | 244 | 4.0 | 9.0 | 0.01 | 0.02 | 0.02 | 92 | 1007.4 |
| 20260506221546 | 59 | 151 | 4.0 | 12.0 | 0.00 | 0.01 | 0.01 | 92 | 1007.4 |
| 20260506221119 | 59 | 242 | 5.0 | 13.0 | 0.00 | 0.01 | 0.01 | 91 | 1007.4 |
| 20260506220046 | 60 | 177 | 3.0 | 11.0 | 0.00 | 0.01 | 0.01 | 91 | 1007.4 |
| 20260506215543 | 60 | 176 | 4.0 | 11.0 | 0.00 | 0.01 | 0.01 | 91 | 1007.4 |
| 20260506215121 | 60 | 253 | 4.0 | 15.0 | 0.00 | 0.01 | 0.01 | 91 | 1007.3 |
| 20260506214041 | 60 | 223 | 4.0 | 12.0 | 0.00 | 0.01 | 0.01 | 90 | 1007.3 |
| 20260506213539 | 60 | 231 | 3.0 | 11.0 | 0.00 | 0.01 | 0.01 | 90 | 1007.4 |
| 20260506213040 | 60 | 183 | 4.0 | 15.0 | 0.00 | 0.01 | 0.01 | 89 | 1007.5 |
| 20260506212537 | 60 | 191 | 5.0 | 15.0 | 0.00 | 0.01 | 0.01 | 89 | 1007.4 |
| 20260506212038 | 60 | 225 | 4.0 | 12.0 | 0.00 | 0.01 | 0.01 | 89 | 1007.6 |
| 20260506211536 | 60 | 225 | 4.0 | 15.0 | 0.00 | 0.01 | 0.01 | 89 | 1007.6 |
| 20260506211037 | 60 | 220 | 5.0 | 15.0 | 0.01 | 0.01 | 0.01 | 90 | 1007.7 |
| 20260506210842 | 60 | 245 | 5.0 | 15.0 | 0.01 | 0.01 | 0.01 | 90 | 1007.7 |
| 20260506210036 | 60 | 33 | 4.0 | 15.0 | 0.01 | 0.01 | 0.01 | 90 | 1007.7 |
| 20260506205537 | 60 | 224 | 4.0 | 14.0 | 0.01 | 0.01 | 0.01 | 90 | 1007.8 |
| 20260506205333 | 60 | 249 | 4.0 | 14.0 | 0.01 | 0.01 | 0.01 | 90 | 1007.8 |
| 20260506204536 | 60 | 237 | 4.0 | 13.0 | 0.01 | 0.01 | 0.01 | 90 | 1007.8 |
| 20260506204416 | 60 | 226 | 4.0 | 13.0 | 0.01 | 0.01 | 0.01 | 90 | 1007.7 |
| 20260506203036 | 60 | 175 | 5.0 | 14.0 | 0.01 | 0.01 | 0.01 | 90 | 1007.9 |
| 20260506202537 | 60 | 174 | 6.0 | 12.0 | 0.01 | 0.01 | 0.01 | 89 | 1007.7 |
| 20260506202036 | 60 | 231 | 4.0 | 12.0 | 0.01 | 0.01 | 0.01 | 89 | 1007.8 |
| 20260506201537 | 61 | 196 | 4.0 | 16.0 | 0.01 | 0.01 | 0.01 | 88 | 1008.0 |
| 20260506201038 | 61 | 169 | 4.0 | 16.0 | 0.00 | 0.00 | 0.00 | 87 | 1008.0 |
| 20260506200912 | 62 | 207 | 4.0 | 11.0 | 0.00 | 0.00 | 0.00 | 86 | 1008.0 |
| 20260506195538 | 62 | 230 | 5.0 | 13.0 | 0.00 | 0.00 | 0.00 | 84 | 1008.1 |
| 20260506195039 | 63 | 261 | 5.0 | 16.0 | 0.00 | 0.00 | 0.00 | 82 | 1008.3 |
| 20260506194537 | 63 | 212 | 5.0 | 16.0 | 0.00 | 0.00 | 0.00 | 81 | 1008.1 |
| 20260506194037 | 64 | 229 | 4.0 | 14.0 | 0.00 | 0.00 | 0.00 | 79 | 1008.2 |
| 20260506193536 | 64 | 233 | 5.0 | 16.0 | 0.00 | 0.00 | 0.00 | 78 | 1008.2 |
| 20260506193326 | 64 | 246 | 7.0 | 16.0 | 0.00 | 0.00 | 0.00 | 78 | 1008.2 |
| 20260506192536 | 64 | 141 | 6.0 | 14.0 | 0.00 | 0.00 | 0.00 | 78 | 1008.4 |
| 20260506192036 | 65 | 226 | 5.0 | 13.0 | 0.00 | 0.00 | 0.00 | 77 | 1008.2 |
| 20260506191535 | 65 | 215 | 4.0 | 13.0 | 0.00 | 0.00 | 0.00 | 77 | 1008.2 |
| 20260506191032 | 65 | 46 | 5.0 | 16.0 | 0.00 | 0.00 | 0.00 | 77 | 1008.2 |
| 20260506190532 | 65 | 209 | 6.0 | 16.0 | 0.00 | 0.00 | 0.00 | 77 | 1007.9 |
| 20260506190318 | 65 | 146 | 5.0 | 14.0 | 0.00 | 0.00 | 0.00 | 77 | 1008.0 |
| 20260506185530 | 65 | 219 | 4.0 | 14.0 | 0.00 | 0.00 | 0.00 | 76 | 1008.2 |
| 20260506185030 | 65 | 153 | 4.0 | 12.0 | 0.00 | 0.00 | 0.00 | 76 | 1008.3 |
| 20260506184530 | 66 | 219 | 5.0 | 18.0 | 0.00 | 0.00 | 0.00 | 76 | 1008.2 |
| 20260506184029 | 66 | 248 | 5.0 | 18.0 | 0.00 | 0.00 | 0.00 | 75 | 1008.4 |
| 20260506183532 | 66 | 255 | 5.0 | 14.0 | 0.00 | 0.00 | 0.00 | 75 | 1008.3 |
| 20260506183028 | 66 | 162 | 5.0 | 15.0 | 0.00 | 0.00 | 0.00 | 74 | 1008.5 |
| 20260506182532 | 67 | 44 | 5.0 | 15.0 | 0.00 | 0.00 | 0.00 | 74 | 1008.4 |